[[{"header":{"parameterUnit":"m.s-1","parameterCategory":1,"la1":30.2991,"la2":30.254,"lo1":-89.0895,"lo2":-89.0444,"dy":0.0017,"dx":0.0017,"nx":28,"ny":28,"refTime":"2024-03-21T21:00:00:Z","depth":0,"parameterNumber":2,"parameterNumberName":"U-component_of_WINDS"},"data":[0,0,0,0,0,0,0,0,0,0,0,0,0,0,0,0,0,0,0,0,0,0,0,0,0,0,0,0,0,0,0,0,0,0,0,0,0,0,0,0,0,0,0,0,0,0,0,0,0,0,0,0,0,0,0,0,0,0,-8.47,-8.4701,0,-8.4808,-8.4809,-8.481,-8.4625,-8.4619,-8.4612,-8.4606,-8.4717,-8.4726,-8.4734,0,0,0,0,0,0,0,0,0,0,0,0,0,-8.4335,-8.4342,-8.47,-8.4701,-8.4703,-8.4807,-8.4809,-8.481,-8.4626,-8.4618,-8.4611,-8.4604,-8.4714,-8.4725,-8.4735,0,0,0,0,0,0,0,0,0,0,0,0,0,-8.4473,-8.4345,-8.47,-8.4623,-8.4617,-8.4807,-8.4809,-8.4811,-8.4628,-8.4618,-8.4609,-8.46,-8.4711,-8.4724,-8.4737,-8.5006,0,0,-8.4777,-8.4783,0,0,0,0,0,0,0,0,-8.4465,-8.4487,-8.4633,-8.4629,-8.4623,-8.4693,-8.472,-8.4876,-8.463,-8.4624,-8.4606,-8.4595,-8.4717,-8.4729,-8.477,-8.5011,-8.5016,-8.4778,-8.4786,-8.4792,-8.4795,0,0,0,0,0,0,0,-8.4456,-8.4481,-8.4742,-8.4635,-8.4629,-8.4584,-8.4593,-8.4749,-8.4722,-8.4624,-8.461,-8.4626,-8.4712,-8.4758,-8.4771,-8.5018,-8.4778,-8.4789,-8.4798,-8.4803,-8.5485,-8.5495,0,0,0,0,0,0,-8.4456,-8.4474,-8.4739,-8.4746,-8.4519,-8.4598,-8.4608,-8.468,-8.4719,-8.4716,-8.4634,-8.4617,-8.474,-8.4756,-8.4774,-8.5091,-8.4792,-8.4804,-8.4812,-8.5475,-8.5488,-8.5499,0,0,0,0,0,0,-8.4449,-8.4481,-8.4735,-8.4606,-8.4635,-8.4614,-8.4696,-8.4687,-8.4732,-8.4727,-8.4721,-8.4685,-8.4733,-8.4756,-8.495,-8.5093,-8.481,-8.4822,-8.5463,-8.5479,-8.5493,-8.5729,0,0,0,0,0,0,-8.4439,-8.448,-8.4582,-8.461,-8.4643,-8.4909,-8.4705,-8.4696,-8.4755,-8.4734,-8.4774,-8.4771,-8.4727,-8.4931,-8.4963,-8.5106,-8.4832,-8.545,-8.547,-8.5488,-8.5708,-8.5751,-8.5787,0,0,0,0,0,-8.4427,-8.4644,-8.4588,-8.4621,-8.477,-8.4917,-8.4936,-8.4881,-8.4768,-8.487,-8.4867,-8.477,-8.5073,-8.4953,-8.4987,-8.5136,-8.5441,-8.5465,-8.5487,-8.5691,-8.5742,-8.5786,0,0,0,0,0,0,-8.4632,-8.4646,-8.4584,-8.4817,-8.4868,-8.4886,-8.5013,-8.4937,-8.5021,-8.4998,-8.4926,-8.4936,-8.5145,-8.516,-8.5026,-8.5399,-8.5238,-8.5269,-8.5381,-8.543,-8.5468,-8.546,-8.4843,0,0,0,0,0,-8.4705,-8.4824,-8.4829,-8.5034,-8.5063,-8.5035,-8.5097,-8.505,-8.5099,-8.512,-8.513,-8.5182,-8.5289,-8.536,-8.5458,-8.571,-8.5716,-8.583,-8.5869,-8.5901,-8.5928,-8.6063,-8.6113,-8.5574,-8.5574,-8.5574,0,0,-8.4856,-8.4878,-8.4957,-8.5076,-8.511,-8.5234,-8.5053,-8.5193,-8.5284,-8.5141,-8.5324,-8.5335,-8.5388,-8.5612,-8.5712,-8.5631,-8.6079,-8.5931,-8.5956,-8.5966,-8.6092,-8.6143,-8.6188,-8.559,-8.5587,-8.5585,0,0,-8.5194,-8.5223,-8.5397,-8.5435,-8.5488,-8.5468,-8.551,-8.5541,-8.5542,-8.5725,-8.562,-8.5729,-8.5914,-8.5956,-8.6001,-8.6358,-8.6272,-8.6392,-8.6596,-8.6728,-8.677,-8.6807,-8.6934,-8.698,-8.642,-8.642,-8.6421,0,-8.5374,-8.5558,-8.5496,-8.5643,-8.5698,-8.5575,-8.575,-8.579,-8.5873,-8.5914,-8.5823,-8.6053,-8.608,-8.6312,-8.6399,-8.6441,-8.6487,-8.6386,-8.6769,-8.6806,-8.684,-8.6959,-8.7007,-8.6434,-8.6433,-8.6431,-8.643,0,-8.5777,-8.5906,-8.604,-8.6123,-8.6194,-8.6355,-8.6317,-8.6396,-8.6345,-8.6335,-8.6523,-8.6552,-8.6653,-8.6705,-8.6656,-8.6931,-8.6879,-8.6781,-8.6617,-8.6906,-8.7017,-8.7063,-8.6455,-8.6449,-8.6445,-8.6442,0,0,-8.6245,-8.6293,-8.6343,-8.638,-8.6431,-8.6529,-8.6685,-8.6784,-8.6853,-8.6916,-8.7044,-8.7204,-8.7113,-8.7165,-8.712,-8.7236,-8.7516,-8.7122,-8.7122,-8.7193,-8.7821,-8.7894,-8.7948,-8.746,-8.7469,-8.7475,-8.7816,0,-8.658,-8.6847,-8.6797,-8.7058,-8.7176,-8.7062,-8.7198,-8.7244,-8.7239,-8.7339,-8.7334,-8.7448,-8.732,-8.735,-8.746,-8.7459,-8.7641,-8.7434,-8.7578,-8.7584,-8.7566,-8.8006,-8.8083,-8.8403,-8.7859,-8.7866,-8.7872,0,-8.7005,-8.7084,-8.7357,-8.739,-8.7437,-8.756,-8.7647,-8.7745,-8.7795,-8.7783,-8.7843,-8.7777,-8.7931,-8.7768,-8.7981,-8.7841,-8.7897,-8.7906,-8.7917,-8.7927,-8.7744,-8.8026,-8.8504,-8.8551,-8.794,-8.7934,-8.7929,0,-8.7318,-8.7492,-8.7678,-8.7713,-8.7756,-8.7845,-8.7867,-8.7908,-8.7972,-8.8048,-8.8089,-8.8183,-8.8235,-8.8309,-8.827,-8.8155,-8.849,-8.8323,-8.8484,-8.8485,-8.8558,-8.8553,-8.905,-8.8598,-8.8598,-8.8597,-8.8596,0,-8.7696,-8.7867,-8.7819,-8.7933,-8.8122,-8.8063,-8.8252,-8.826,-8.8299,-8.8412,-8.832,-8.8429,-8.8371,-8.8476,-8.8447,-8.8627,-8.8652,-8.8646,-8.8636,-8.8654,-8.8654,-8.8688,-8.8664,-8.8609,-8.8606,-8.8604,-8.8602,0,-8.8076,-8.805,-8.8245,-8.8271,-8.8281,-8.8419,-8.8441,-8.8548,-8.8537,-8.8682,-8.8713,-8.8696,-8.8815,-8.8784,-8.8913,-8.8894,-8.9121,-8.9084,-8.9104,-8.9094,-8.9256,-8.9241,-8.979,-8.9859,-8.9365,-8.937,-8.9374,0,-8.8317,-8.8446,-8.8487,-8.8556,-8.8586,-8.8699,-8.8764,-8.8712,-8.8783,-8.8851,-8.895,-8.9061,-8.9146,-8.9342,-8.9341,-8.944,-8.9403,-8.9589,-8.9417,-8.943,-8.9404,-8.9396,-8.9408,-8.9622,-8.9628,-8.9632,-8.9636,0,-8.8749,-8.873,-8.8826,-8.892,-8.8999,-8.907,-8.9132,-8.9195,-8.9147,-8.9232,-8.9352,-8.9419,-8.9551,-8.9663,-8.9754,-8.9776,-8.9699,-8.9691,-8.9733,-8.9751,-8.9757,-8.9754,-8.9195,-8.9678,-8.9673,-8.967,-8.9668,-8.9666,-8.9065,-8.9175,-8.922,-8.9331,-8.9373,-8.9433,-8.9535,-8.9537,-8.9637,-8.974,-8.9704,-8.9843,-8.9891,-9.0005,-9.0039,-9.0147,-9.0076,-9.0137,-9.0153,-9.0168,-9.0188,-8.9742,-9.0163,-9.0162,-9.0161,-9.016,-9.0159,0,-8.949,-8.9515,-8.9617,-8.9707,-8.9795,-8.9716,-8.9781,-8.9859,-8.9982,-9.0033,-9.012,-9.0259,-9.0367,-9.0376,-9.0477,-9.0561,-9.0529,-9.059,-9.0582,-9.0588,-9.0246,-9.0198,-9.0614,-9.0614,-9.0614,-9.0614,-9.0614,-9.0614,-8.9721,-8.9902,-8.989,-9.0091,-9.0113,-9.0248,-9.0292,-9.0348,-9.0388,-9.0548,-9.0637,-9.0642,-9.0677,-9.0781,-9.0876,-9.0876,-9.0917,-9.0992,-9.0978,-9.0658,-9.0612,-9.0569,-9.0524,-9.1002,-9.1002,-9.1311,-9.1314,-9.1316]},{"header":{"parameterUnit":"m.s-1","parameterCategory":1,"la1":30.2991,"la2":30.254,"lo1":-89.0895,"lo2":-89.0444,"dy":0.0017,"dx":0.0017,"nx":28,"ny":28,"refTime":"2024-03-21T21:00:00:Z","depth":0,"parameterNumber":3,"parameterNumberName":"V-component_of_WINDS"},"data":[0,0,0,0,0,0,0,0,0,0,0,0,0,0,0,0,0,0,0,0,0,0,0,0,0,0,0,0,0,0,0,0,0,0,0,0,0,0,0,0,0,0,0,0,0,0,0,0,0,0,0,0,0,0,0,0,0,0,-0.0835,-0.0834,0,-0.0752,-0.0751,-0.075,-0.0703,-0.0703,-0.0703,-0.0703,-0.0619,-0.0617,-0.0615,0,0,0,0,0,0,0,0,0,0,0,0,0,-0.0953,-0.0951,-0.0835,-0.0834,-0.0833,-0.0752,-0.0751,-0.075,-0.0703,-0.0703,-0.0703,-0.0703,-0.062,-0.0618,-0.0615,0,0,0,0,0,0,0,0,0,0,0,0,0,-0.0889,-0.0951,-0.0835,-0.08,-0.0796,-0.0753,-0.0751,-0.075,-0.0703,-0.0703,-0.0703,-0.0703,-0.0621,-0.0618,-0.0615,-0.06,0,0,-0.0605,-0.0604,0,0,0,0,0,0,0,0,-0.0893,-0.0885,-0.0806,-0.0802,-0.0798,-0.0738,-0.0762,-0.07,-0.0703,-0.0739,-0.0703,-0.0703,-0.0659,-0.0653,-0.0638,-0.0597,-0.0593,-0.0605,-0.0603,-0.0602,-0.0601,0,0,0,0,0,0,0,-0.0897,-0.0888,-0.0802,-0.0805,-0.08,-0.0788,-0.0779,-0.075,-0.0701,-0.0736,-0.0732,-0.0723,-0.0657,-0.0641,-0.0636,-0.0592,-0.0605,-0.0602,-0.06,-0.0599,-0.0532,-0.0532,0,0,0,0,0,0,-0.0907,-0.0892,-0.0805,-0.08,-0.0846,-0.0786,-0.0776,-0.0757,-0.0701,-0.0693,-0.0723,-0.0721,-0.0646,-0.0639,-0.0632,-0.0611,-0.0602,-0.0599,-0.0597,-0.0532,-0.0532,-0.0532,0,0,0,0,0,0,-0.091,-0.09,-0.0808,-0.0845,-0.0832,-0.0785,-0.0764,-0.0756,-0.074,-0.0692,-0.0683,-0.0716,-0.0646,-0.0637,-0.0608,-0.0607,-0.0598,-0.0595,-0.0532,-0.0532,-0.0532,-0.0568,0,0,0,0,0,0,-0.0914,-0.0901,-0.0896,-0.0845,-0.0831,-0.0786,-0.0764,-0.0754,-0.0735,-0.0731,-0.0683,-0.0675,-0.0645,-0.0613,-0.0605,-0.0603,-0.0592,-0.0532,-0.0532,-0.0532,-0.0566,-0.0569,-0.0571,0,0,0,0,0,-0.0918,-0.091,-0.0896,-0.0885,-0.0822,-0.0786,-0.0777,-0.0743,-0.0735,-0.0728,-0.0697,-0.0676,-0.0608,-0.0611,-0.0601,-0.0598,-0.0532,-0.0532,-0.0532,-0.0565,-0.0569,-0.0571,0,0,0,0,0,0,-0.0962,-0.0903,-0.0886,-0.0861,-0.0829,-0.0778,-0.0769,-0.0748,-0.0718,-0.0715,-0.0674,-0.0664,-0.0639,-0.0615,-0.0619,-0.058,-0.0568,-0.0566,-0.0596,-0.0599,-0.0601,-0.0607,-0.059,0,0,0,0,0,-0.0969,-0.0944,-0.0893,-0.0876,-0.086,-0.0817,-0.08,-0.0776,-0.0741,-0.0728,-0.0694,-0.0661,-0.0632,-0.0614,-0.0585,-0.0563,-0.0551,-0.0556,-0.0558,-0.056,-0.0559,-0.0544,-0.0545,-0.0533,-0.0533,-0.0533,0,0,-0.0983,-0.0947,-0.0934,-0.0884,-0.0856,-0.083,-0.0806,-0.0781,-0.0762,-0.0724,-0.0694,-0.0669,-0.0629,-0.0603,-0.059,-0.0583,-0.056,-0.056,-0.0563,-0.056,-0.0544,-0.0545,-0.0547,-0.0533,-0.0533,-0.0533,0,0,-0.0995,-0.0966,-0.0947,-0.0919,-0.0877,-0.0848,-0.0843,-0.0795,-0.0776,-0.0746,-0.0716,-0.0693,-0.0644,-0.0616,-0.0596,-0.0596,-0.0575,-0.0587,-0.06,-0.0586,-0.0586,-0.0587,-0.0586,-0.0586,-0.0586,-0.0587,-0.0587,0,-0.1018,-0.0978,-0.0941,-0.0916,-0.0895,-0.0858,-0.0838,-0.0813,-0.0764,-0.075,-0.0742,-0.0679,-0.065,-0.0616,-0.0615,-0.0601,-0.0594,-0.0593,-0.0589,-0.059,-0.059,-0.0588,-0.0588,-0.0588,-0.0588,-0.0588,-0.0588,0,-0.1008,-0.0981,-0.0971,-0.0922,-0.09,-0.0878,-0.0837,-0.0818,-0.0796,-0.0768,-0.0736,-0.07,-0.0662,-0.0652,-0.0631,-0.0615,-0.0611,-0.0597,-0.0584,-0.0593,-0.0591,-0.059,-0.0591,-0.059,-0.059,-0.0589,0,0,-0.1046,-0.0976,-0.0973,-0.095,-0.0899,-0.0878,-0.0854,-0.0816,-0.08,-0.0767,-0.0745,-0.0704,-0.069,-0.0667,-0.0642,-0.0629,-0.0629,-0.0616,-0.0614,-0.0619,-0.0608,-0.0619,-0.0619,-0.0615,-0.0615,-0.0615,-0.0611,0,-0.1051,-0.1006,-0.097,-0.0939,-0.0912,-0.0876,-0.0855,-0.0822,-0.0794,-0.0768,-0.0738,-0.0709,-0.0693,-0.0678,-0.0664,-0.0632,-0.0626,-0.0632,-0.0594,-0.0594,-0.0605,-0.0618,-0.0629,-0.0628,-0.061,-0.061,-0.061,0,-0.105,-0.1017,-0.0982,-0.0932,-0.092,-0.0902,-0.0863,-0.0838,-0.0799,-0.078,-0.0753,-0.0727,-0.0699,-0.0689,-0.065,-0.0655,-0.0637,-0.0619,-0.0618,-0.0613,-0.0602,-0.0612,-0.0627,-0.0626,-0.0608,-0.0608,-0.0608,0,-0.1081,-0.1027,-0.0999,-0.098,-0.0922,-0.091,-0.0885,-0.0845,-0.0824,-0.079,-0.0776,-0.074,-0.072,-0.0692,-0.0656,-0.0652,-0.0621,-0.0608,-0.0604,-0.0605,-0.0599,-0.06,-0.061,-0.0589,-0.0589,-0.0589,-0.0589,0,-0.1089,-0.1069,-0.1012,-0.0994,-0.0971,-0.093,-0.0907,-0.0879,-0.0844,-0.082,-0.0787,-0.0766,-0.072,-0.0692,-0.0664,-0.0636,-0.0627,-0.0611,-0.0603,-0.0613,-0.0615,-0.0601,-0.06,-0.0588,-0.0588,-0.0589,-0.0589,0,-0.1119,-0.108,-0.1047,-0.0994,-0.098,-0.0964,-0.0919,-0.09,-0.087,-0.0841,-0.0831,-0.0785,-0.0751,-0.0712,-0.0666,-0.0646,-0.062,-0.0609,-0.0633,-0.0629,-0.0626,-0.0627,-0.0628,-0.0625,-0.0606,-0.0607,-0.0607,0,-0.1127,-0.1111,-0.1055,-0.1036,-0.1012,-0.0983,-0.096,-0.0919,-0.0897,-0.085,-0.0837,-0.08,-0.0768,-0.0716,-0.0678,-0.0642,-0.063,-0.0632,-0.0624,-0.0634,-0.0629,-0.063,-0.0628,-0.0635,-0.0635,-0.0636,-0.0636,0,-0.1145,-0.1126,-0.1094,-0.1056,-0.1029,-0.0997,-0.0964,-0.095,-0.0902,-0.0879,-0.0843,-0.0819,-0.077,-0.0734,-0.0693,-0.0667,-0.0643,-0.0639,-0.0636,-0.0646,-0.0659,-0.0651,-0.0638,-0.0639,-0.0639,-0.0638,-0.0638,-0.0638,-0.1163,-0.1146,-0.1104,-0.107,-0.104,-0.1009,-0.0988,-0.0955,-0.0924,-0.0881,-0.0858,-0.0823,-0.0782,-0.0724,-0.0699,-0.067,-0.0663,-0.0659,-0.0658,-0.0657,-0.0659,-0.0664,-0.0663,-0.0663,-0.0663,-0.0663,-0.0662,0,-0.1178,-0.1149,-0.1118,-0.1071,-0.1044,-0.1023,-0.0984,-0.0962,-0.0931,-0.0895,-0.0864,-0.0822,-0.0786,-0.0745,-0.0706,-0.0691,-0.0679,-0.0682,-0.0683,-0.0677,-0.0669,-0.0675,-0.0693,-0.0693,-0.0693,-0.0693,-0.0693,-0.0693,-0.1183,-0.1152,-0.1128,-0.1082,-0.1052,-0.1017,-0.0996,-0.0967,-0.0938,-0.0892,-0.0862,-0.0834,-0.0796,-0.0754,-0.0719,-0.0708,-0.0695,-0.0701,-0.0687,-0.068,-0.0678,-0.0675,-0.0681,-0.0699,-0.0699,-0.0697,-0.0697,-0.0697]}]]